Weather History for Chippewa, MI

Change the Weather History Date:

Tuesday, March 5, 2013

  Actual Average Record
Temperature  
Mean Temperature 20 °F -  
Max Temperature 33 °F 32 °F 51 °F (1983)
Min Temperature 8 °F 11 °F -12 °F (1990)
Degree Days  
Heating Degree Days 44    
Moisture  
Dew Point 16 °F    
Average Humidity 78    
Maximum Humidity 93    
Minimum Humidity 48    
Precipitation  
Precipitation 0.00 in - - ()
Sea Level Pressure  
Sea Level Pressure 30.10 in    
Wind  
Wind Speed 6 mph (NE)    
Max Wind Speed 13 mph    
Max Gust Speed 17 mph    
Visibility 10 miles    
Events      
Averages and records for this station are not official NWS values.
T = Trace of Precipitation, MM = Missing Value Source: NWS Daily Summary

Daily Weather History Graph

Daily Weather History Graph

Search for Another Location

Airport:

Trip Planner

Search our weather history database for the weather conditions in past years. The results will help you decide how hot, cold, wet, or windy it might be!

Date:

Astronomy

Mar. 05, 2013 Rise Set
Actual Time 7:09 AM EST 6:30 PM EST
Civil Twilight 6:39 AM EST 7:00 PM EST
Nautical Twilight 6:04 AM EST 7:34 PM EST
Astronomical Twilight 5:29 AM EST 8:10 PM EST
Moon 2:35 AM EST (3/5) 11:53 AM EST (3/5)
Length of Visible Light 12h 21m
Length of Day
11h 21m
Last Quarter, 41% of the Moon is Illuminated
Mar 5
Last Quarter
Mar 11
New
Mar 19
First Quarter
Mar 27
Full
Apr 3
Last Quarter

Hourly Weather History & Observations

Time (EST) Temp. Windchill Dew Point Humidity Pressure Visibility Wind Dir Wind Speed Gust Speed Precip Events Conditions
12:15 AM 15.8 °F 8.6 °F 14.0 °F 93% 30.13 in 10.0 mi NNE 4.6 mph - N/A   Clear
12:35 AM 15.8 °F 7.2 °F 12.2 °F 86% 30.14 in 10.0 mi NNE 5.8 mph - N/A   Clear
12:55 AM 14.0 °F 5.1 °F 12.2 °F 93% 30.14 in 10.0 mi NNE 5.8 mph - N/A   Clear
1:15 AM 12.2 °F 4.3 °F 10.4 °F 92% 30.14 in 10.0 mi NNE 4.6 mph - N/A   Clear
2:35 AM 15.8 °F 10.2 °F 10.4 °F 79% 30.16 in 10.0 mi NE 3.5 mph - N/A   Clear
2:55 AM 14.0 °F - 8.6 °F 79% 30.16 in 10.0 mi Calm Calm - N/A   Clear
3:15 AM 12.2 °F 2.9 °F 10.4 °F 92% 30.16 in 10.0 mi NNE 5.8 mph - N/A   Clear
3:35 AM 14.0 °F 5.1 °F 10.4 °F 86% 30.15 in 10.0 mi NNE 5.8 mph - N/A   Clear
3:55 AM 14.0 °F 5.1 °F 10.4 °F 86% 30.16 in 10.0 mi NNE 5.8 mph - N/A   Clear
4:15 AM 14.0 °F 5.1 °F 10.4 °F 86% 30.15 in 10.0 mi North 5.8 mph - N/A   Clear
4:35 AM 12.2 °F 0.7 °F 10.4 °F 92% 30.14 in 10.0 mi NNE 8.1 mph - N/A   Clear
4:55 AM 12.2 °F 1.7 °F 8.6 °F 85% 30.15 in 10.0 mi North 6.9 mph - N/A   Clear
5:15 AM 12.2 °F 4.3 °F 8.6 °F 85% 30.15 in 10.0 mi North 4.6 mph - N/A   Clear
5:35 AM 10.4 °F 2.2 °F 8.6 °F 92% 30.14 in 10.0 mi NNE 4.6 mph - N/A   Clear
5:55 AM 10.4 °F - 8.6 °F 92% 30.15 in 10.0 mi Calm Calm - N/A   Clear
6:15 AM 10.4 °F - 6.8 °F 85% 30.15 in 10.0 mi Calm Calm - N/A   Clear
6:35 AM 8.6 °F -2.6 °F 6.8 °F 92% 30.14 in 10.0 mi NNE 6.9 mph - N/A   Clear
6:55 AM 8.6 °F 0.1 °F 6.8 °F 92% 30.14 in 10.0 mi NE 4.6 mph - N/A   Clear
7:15 AM 8.6 °F - 6.8 °F 92% 30.15 in 10.0 mi Calm Calm - N/A   Clear
7:35 AM 8.6 °F - 6.8 °F 92% 30.15 in 10.0 mi Calm Calm - N/A   Clear
7:55 AM 10.4 °F 0.8 °F 8.6 °F 92% 30.15 in 10.0 mi NE 5.8 mph - N/A   Clear
8:15 AM 12.2 °F 2.9 °F 10.4 °F 92% 30.15 in 10.0 mi NE 5.8 mph - N/A   Clear
8:35 AM 15.8 °F 5.1 °F 10.4 °F 79% 30.14 in 10.0 mi NE 8.1 mph - N/A   Clear
8:55 AM 15.8 °F 4.2 °F 12.2 °F 86% 30.14 in 10.0 mi ENE 9.2 mph - N/A   Clear
9:15 AM 17.6 °F 5.0 °F 12.2 °F 79% 30.14 in 10.0 mi ENE 11.5 mph - N/A   Clear
9:35 AM 17.6 °F 5.7 °F 12.2 °F 79% 30.14 in 10.0 mi ENE 10.4 mph - N/A   Clear
9:55 AM 19.4 °F 8.6 °F 12.2 °F 74% 30.13 in 10.0 mi NE 9.2 mph - N/A   Clear
10:15 AM 19.4 °F 11.5 °F 12.2 °F 74% 30.12 in 10.0 mi ENE 5.8 mph - N/A   Clear
10:35 AM 21.2 °F 12.6 °F 14.0 °F 74% 30.12 in 10.0 mi ENE 6.9 mph - N/A   Clear
10:55 AM 24.8 °F 14.6 °F 14.0 °F 64% 30.11 in 10.0 mi ENE 10.4 mph - N/A   Clear
11:15 AM 24.8 °F 16.1 °F 14.0 °F 64% 30.11 in 10.0 mi ENE 8.1 mph - N/A   Clear
11:35 AM 24.8 °F 16.9 °F 14.0 °F 64% 30.10 in 10.0 mi ENE 6.9 mph - N/A   Clear
11:55 AM 26.6 °F 18.2 °F 15.8 °F 64% 30.10 in 10.0 mi East 8.1 mph - N/A   Clear
12:15 PM 28.4 °F 21.2 °F 15.8 °F 59% 30.10 in 10.0 mi East 6.9 mph - N/A   Clear
12:35 PM 28.4 °F 20.4 °F 15.8 °F 59% 30.09 in 10.0 mi ESE 8.1 mph - N/A   Clear
12:55 PM 28.4 °F 22.2 °F 15.8 °F 59% 30.09 in 10.0 mi ESE 5.8 mph - N/A   Clear
1:15 PM 28.4 °F 24.6 °F 15.8 °F 59% 30.09 in 10.0 mi SE 3.5 mph - N/A   Clear
1:35 PM 30.2 °F 26.7 °F 15.8 °F 55% 30.08 in 10.0 mi ESE 3.5 mph - N/A   Clear
1:55 PM 33.8 °F - 15.8 °F 48% 30.07 in 10.0 mi Calm Calm - N/A   Clear
2:15 PM 26.6 °F 21.2 °F 15.8 °F 64% 30.07 in 10.0 mi South 4.6 mph - N/A   Clear
2:35 PM 30.2 °F - 17.6 °F 60% 30.07 in 10.0 mi Calm Calm - N/A   Clear
2:55 PM 28.4 °F 23.3 °F 17.6 °F 64% 30.06 in 10.0 mi ENE 4.6 mph - N/A   Clear
3:15 PM 28.4 °F 24.6 °F 17.6 °F 64% 30.06 in 10.0 mi NE 3.5 mph - N/A   Scattered Clouds
3:35 PM 30.2 °F 24.3 °F 19.4 °F 64% 30.06 in 10.0 mi ENE 5.8 mph - N/A   Overcast
3:55 PM 30.2 °F 26.7 °F 17.6 °F 60% 30.05 in 10.0 mi ENE 3.5 mph - N/A   Overcast
4:15 PM 30.2 °F 23.4 °F 19.4 °F 64% 30.04 in 10.0 mi NE 6.9 mph - N/A   Overcast
4:35 PM 30.2 °F 24.3 °F 19.4 °F 64% 30.04 in 10.0 mi NE 5.8 mph - N/A   Mostly Cloudy
4:55 PM 32.0 °F 28.7 °F 19.4 °F 60% 30.04 in 10.0 mi NNE 3.5 mph - N/A   Overcast
5:15 PM 32.0 °F 26.4 °F 19.4 °F 60% 30.04 in 10.0 mi NE 5.8 mph - N/A   Overcast
5:35 PM 30.2 °F 23.4 °F 21.2 °F 69% 30.04 in 10.0 mi North 6.9 mph - N/A   Overcast
5:55 PM 28.4 °F 19.7 °F 19.4 °F 69% 30.04 in 10.0 mi NNW 9.2 mph - N/A   Overcast
6:15 PM 26.6 °F 18.2 °F 19.4 °F 74% 30.05 in 10.0 mi NNW 8.1 mph - N/A   Overcast
6:35 PM 26.6 °F 15.7 °F 19.4 °F 74% 30.05 in 10.0 mi NNW 12.7 mph - N/A   Overcast
6:55 PM 26.6 °F 18.2 °F 19.4 °F 74% 30.05 in 10.0 mi NNW 8.1 mph - N/A   Overcast
7:15 PM 24.8 °F 16.1 °F 19.4 °F 80% 30.06 in 10.0 mi North 8.1 mph - N/A   Overcast
7:35 PM 24.8 °F 16.9 °F 21.2 °F 86% 30.05 in 10.0 mi NNW 6.9 mph - N/A   Overcast
7:55 PM 24.8 °F 16.9 °F 21.2 °F 86% 30.05 in 10.0 mi NNW 6.9 mph - N/A   Overcast
8:15 PM 24.8 °F 19.1 °F 21.2 °F 86% 30.05 in 10.0 mi NNW 4.6 mph - N/A   Overcast
8:35 PM 26.6 °F 21.2 °F 21.2 °F 80% 30.05 in 10.0 mi NNW 4.6 mph - N/A   Overcast
8:55 PM 26.6 °F 21.2 °F 23.0 °F 86% 30.05 in 10.0 mi North 4.6 mph - N/A   Overcast
9:15 PM 26.6 °F 21.2 °F 23.0 °F 86% 30.06 in 10.0 mi NNE 4.6 mph - N/A   Overcast
9:35 PM 26.6 °F 21.2 °F 23.0 °F 86% 30.07 in 10.0 mi NNE 4.6 mph - N/A   Overcast
9:55 PM 26.6 °F 19.1 °F 24.8 °F 93% 30.07 in 10.0 mi NE 6.9 mph - N/A   Overcast
10:15 PM 28.4 °F 19.7 °F 24.8 °F 86% 30.08 in 10.0 mi NE 9.2 mph - N/A   Overcast
10:35 PM 28.4 °F 22.2 °F 24.8 °F 86% 30.09 in 10.0 mi ENE 5.8 mph - N/A   Overcast
10:55 PM 28.4 °F 22.2 °F 24.8 °F 86% 30.09 in 10.0 mi ENE 5.8 mph - N/A   Overcast
11:15 PM 28.4 °F 19.1 °F 24.8 °F 86% 30.10 in 10.0 mi ENE 10.4 mph - N/A   Overcast
11:35 PM 28.4 °F 18.5 °F 24.8 °F 86% 30.10 in 10.0 mi ENE 11.5 mph 17.3 mph N/A   Overcast
11:55 PM 28.4 °F 19.1 °F 24.8 °F 86% 30.10 in 10.0 mi NE 10.4 mph - N/A   Overcast